Appleton, MN

12:33 PM CST on November 17, 2019 (GMT -0600)
Appleton Municipal

Weather History for KAQP - August, 2019

Change the Weather History Date:

Sunday, August 4, 2019

  Actual Average Record
Temperature  
Mean Temperature 76 °F -  
Max Temperature 87 °F 78 °F 93 °F (2001)
Min Temperature 66 °F 57 °F 33 °F (2002)
Cooling Degree Days 12    
Growing Degree Days 26 (Base 50)    
Moisture  
Dew Point 66 °F    
Average Humidity 73    
Maximum Humidity 89    
Minimum Humidity 55    
Precipitation  
Precipitation 0.00 in - - ()
Sea Level Pressure  
Sea Level Pressure 29.99 in    
Wind  
Wind Speed 0 mph (WSW)    
Max Wind Speed 8 mph    
Max Gust Speed -    
Visibility 10 miles    
Events      
Averages and records for this station are not official NWS values.
T = Trace of Precipitation, MM = Missing Value Source: NWS Daily Summary

Daily Weather History Graph

Daily Weather History Graph

Search for Another Location

Airport or City:

Astronomy

Aug. 04, 2019 Rise Set
Actual Time 6:11 AM CDT 8:47 PM CDT
Civil Twilight 5:38 AM CDT 9:20 PM CDT
Nautical Twilight 4:56 AM CDT 10:02 PM CDT
Astronomical Twilight 4:07 AM CDT 10:50 PM CDT
Moon 10:29 AM CDT (8/4) 11:15 PM CDT (8/4)
Length of Visible Light 15h 42m
Length of Day
14h 35m
Waxing Crescent, 18% of the Moon is Illuminated
Aug 4
Waxing Crescent
Aug 7
First Quarter
Aug 15
Full
Aug 23
Last Quarter
Aug 30
New

Hourly Weather History & Observations

Time (CDT) Temp. Heat Index Dew Point Humidity Pressure Visibility Wind Dir Wind Speed Gust Speed Precip Events Conditions
12:10 AM 69.8 °F - 64.4 °F 83% 30.05 in 10.0 mi Calm Calm - N/A   Clear
12:34 AM 69.8 °F - 64.4 °F 83% 30.05 in 10.0 mi Calm Calm - N/A   Clear
12:54 AM 69.8 °F - 64.4 °F 83% 30.04 in 10.0 mi Calm Calm - N/A   Clear
1:14 AM 69.8 °F - 62.6 °F 78% 30.04 in 10.0 mi Calm Calm - N/A   Clear
1:31 AM 69.8 °F - 62.6 °F 78% 30.04 in 10.0 mi Calm Calm - N/A   Clear
1:51 AM 69.8 °F - 62.6 °F 78% 30.04 in 10.0 mi Calm Calm - N/A   Clear
2:11 AM 69.8 °F - 62.6 °F 78% 30.04 in 10.0 mi Calm Calm - N/A   Clear
2:33 AM 68.0 °F - 62.6 °F 83% 30.05 in 10.0 mi Calm Calm - N/A   Clear
2:55 AM 66.2 °F - 60.8 °F 83% 30.05 in 10.0 mi Calm Calm - N/A   Clear
3:11 AM 66.2 °F - 60.8 °F 83% 30.05 in 10.0 mi Calm Calm - N/A   Clear
3:30 AM 66.2 °F - 62.6 °F 88% 30.05 in 10.0 mi Calm Calm - N/A   Clear
3:55 AM 66.2 °F - 62.6 °F 88% 30.06 in 10.0 mi Calm Calm - N/A   Overcast
4:11 AM 66.2 °F - 62.6 °F 88% 30.05 in 10.0 mi Calm Calm - N/A   Overcast
4:35 AM 66.2 °F - 62.6 °F 88% 30.05 in 10.0 mi Calm Calm - N/A   Overcast
4:51 AM 68.0 °F - 64.4 °F 88% 30.04 in 10.0 mi Calm Calm - N/A   Overcast
5:11 AM 68.0 °F - 62.6 °F 83% 30.04 in 10.0 mi Calm Calm - N/A   Overcast
5:31 AM 68.0 °F - 62.6 °F 83% 30.03 in 10.0 mi Calm Calm - N/A   Overcast
5:51 AM 68.0 °F - 62.6 °F 83% 30.04 in 10.0 mi Calm Calm - N/A   Mostly Cloudy
6:10 AM 68.0 °F - 64.4 °F 88% 30.04 in 10.0 mi Calm Calm - N/A   Overcast
6:34 AM 68.0 °F - 64.4 °F 88% 30.03 in 10.0 mi Calm Calm - N/A   Overcast
6:51 AM 69.8 °F - 64.4 °F 83% 30.03 in 10.0 mi Calm Calm - N/A   Mostly Cloudy
7:16 AM 69.8 °F - 64.4 °F 83% 30.03 in 10.0 mi Calm Calm - N/A   Overcast
7:31 AM 69.8 °F - 64.4 °F 83% 30.03 in 10.0 mi Calm Calm - N/A   Overcast
7:51 AM 69.8 °F - 64.4 °F 83% 30.03 in 10.0 mi Calm Calm - N/A   Mostly Cloudy
8:10 AM 71.6 °F - 64.4 °F 78% 30.02 in 10.0 mi Calm Calm - N/A   Scattered Clouds
8:31 AM 73.4 °F - 66.2 °F 78% 30.02 in 10.0 mi Calm Calm - N/A   Scattered Clouds
8:52 AM 73.4 °F - 66.2 °F 78% 30.02 in 10.0 mi Calm Calm - N/A   Clear
9:16 AM 75.2 °F - 64.4 °F 69% 30.02 in 10.0 mi Calm Calm - N/A   Scattered Clouds
9:32 AM 75.2 °F - 66.2 °F 73% 30.01 in 10.0 mi Calm Calm - N/A   Scattered Clouds
9:51 AM 77.0 °F - 66.2 °F 69% 30.01 in 10.0 mi SSE 5.8 mph - N/A   Clear
10:11 AM 78.8 °F - 66.2 °F 65% 30.01 in 10.0 mi South 3.5 mph - N/A   Clear
10:31 AM 80.6 °F 83.2 °F 68.0 °F 65% 30.01 in 10.0 mi South 5.8 mph - N/A   Clear
10:50 AM 80.6 °F 82.7 °F 66.2 °F 61% 30.01 in 10.0 mi South 6.9 mph - N/A   Clear
12:30 PM 84.2 °F 86.6 °F 66.2 °F 55% 30.00 in 10.0 mi Calm Calm - N/A   Clear
12:54 PM 84.2 °F 86.6 °F 66.2 °F 55% 29.99 in 10.0 mi Calm Calm - N/A   Scattered Clouds
1:15 PM 84.2 °F 86.6 °F 66.2 °F 55% 29.99 in 10.0 mi Calm Calm - N/A   Scattered Clouds
1:31 PM 84.2 °F 86.6 °F 66.2 °F 55% 29.99 in 10.0 mi Calm Calm - N/A   Scattered Clouds
1:52 PM 84.2 °F 86.6 °F 66.2 °F 55% 29.99 in 10.0 mi Calm Calm - N/A   Scattered Clouds
2:15 PM 84.2 °F 87.3 °F 68.0 °F 58% 29.99 in 10.0 mi Calm Calm - N/A   Scattered Clouds
2:31 PM 84.2 °F 87.3 °F 68.0 °F 58% 29.99 in 7.0 mi Calm Calm - N/A   Mostly Cloudy
2:54 PM 84.2 °F 87.3 °F 68.0 °F 58% 29.99 in 10.0 mi Calm Calm - N/A   Mostly Cloudy
3:16 PM 87.8 °F 92.6 °F 69.8 °F 55% 29.99 in 10.0 mi Calm Calm - N/A   Scattered Clouds
3:31 PM 86.0 °F 89.4 °F 68.0 °F 55% 29.98 in 10.0 mi Calm Calm - N/A   Scattered Clouds
3:50 PM 86.0 °F 89.4 °F 68.0 °F 55% 29.98 in 10.0 mi Calm Calm - N/A   Scattered Clouds
4:10 PM 86.0 °F 89.4 °F 68.0 °F 55% 29.98 in 10.0 mi Calm Calm - N/A   Scattered Clouds
4:35 PM 86.0 °F 89.4 °F 68.0 °F 55% 29.97 in 10.0 mi Calm Calm - N/A   Clear
4:50 PM 86.0 °F 90.4 °F 69.8 °F 58% 29.96 in 10.0 mi Calm Calm - N/A   Clear
5:10 PM 86.0 °F 90.4 °F 69.8 °F 58% 29.96 in 10.0 mi Calm Calm - N/A   Scattered Clouds
5:34 PM 87.8 °F 92.6 °F 69.8 °F 55% 29.96 in 10.0 mi WNW 8.1 mph - N/A   Clear
5:51 PM 84.2 °F 88.4 °F 69.8 °F 62% 29.95 in 10.0 mi WNW 3.5 mph - N/A   Clear
6:14 PM 86.0 °F 90.4 °F 69.8 °F 58% 29.94 in 10.0 mi NNW 3.5 mph - N/A   Scattered Clouds
6:35 PM 84.2 °F 88.4 °F 69.8 °F 62% 29.94 in 10.0 mi NW 4.6 mph - N/A   Clear
6:51 PM 84.2 °F 88.4 °F 69.8 °F 62% 29.94 in 10.0 mi NW 4.6 mph - N/A   Clear
7:11 PM 84.2 °F 88.4 °F 69.8 °F 62% 29.93 in 10.0 mi Calm Calm - N/A   Clear
7:31 PM 84.2 °F 87.3 °F 68.0 °F 58% 29.93 in 10.0 mi Calm Calm - N/A   Clear
7:50 PM 84.2 °F 88.4 °F 69.8 °F 62% 29.93 in 10.0 mi Calm Calm - N/A   Clear
8:17 PM 82.4 °F 87.2 °F 71.6 °F 70% 29.92 in 10.0 mi Calm Calm - N/A   Clear
8:31 PM 80.6 °F 84.6 °F 71.6 °F 74% 29.91 in 10.0 mi East 3.5 mph - N/A   Clear
8:54 PM 78.8 °F - 69.8 °F 74% 29.92 in 10.0 mi Calm Calm - N/A   Clear
9:11 PM 77.0 °F - 69.8 °F 78% 29.92 in 10.0 mi Calm Calm - N/A   Clear
9:31 PM 75.2 °F - 71.6 °F 89% 29.93 in 10.0 mi Calm Calm - N/A   Clear
9:51 PM 73.4 °F - 69.8 °F 88% 29.93 in 10.0 mi Calm Calm - N/A   Clear
10:12 PM 73.4 °F - 69.8 °F 88% 29.94 in 10.0 mi Calm Calm - N/A   Clear
10:31 PM 73.4 °F - 69.8 °F 88% 29.95 in 10.0 mi Calm Calm - N/A   Clear
10:57 PM 71.6 °F - 68.0 °F 88% 29.95 in 10.0 mi Calm Calm - N/A   Clear
11:11 PM 71.6 °F - 68.0 °F 88% 29.95 in 10.0 mi Calm Calm - N/A   Clear
11:35 PM 71.6 °F - 68.0 °F 88% 29.94 in 7.0 mi Calm Calm - N/A   Clear
11:51 PM 71.6 °F - 68.0 °F 88% 29.94 in 10.0 mi Calm Calm - N/A   Clear